Regional Weather Roundup
Issued by NWS Mt. Holly, NJ

Home | Current Version | Previous Version | Text Only | Print | Product List | Glossary On
Versions: 1 2 3 4 5 6 7 8 9 10 11 12 13 14 15 16 17 18 19 20 21 22 23 24 25 26 27 28 29 30 31 32 33 34 35 36 37 38 39 40 41 42 43 44 45 46 47 48 49 50
000
ASUS41 KPHI 221212
RWRPHI

REGIONAL WEATHER ROUNDUP
NATIONAL WEATHER SERVICE MOUNT HOLLY NJ
700 AM EST SUN JAN 22 2017

NOTE:  "FAIR" INDICATES FEW OR NO CLOUDS BELOW 12,000 FEET WITH NO
SIGNIFICANT WEATHER AND/OR OBSTRUCTIONS TO VISIBILITY.

 * = STATION DOES NOT REPORT PRECIPITATION (E.G. RAIN, SNOW, ETC.)
        OR FOG.

NJZ015>026-221300-
SOUTHERN NEW JERSEY

CITY           SKY/WX    TMP DP  RH WIND       PRES   REMARKS
POMONA         LGT RAIN  45  43  93 NE6       29.68F VSB 1
6HR MIN TEMP:  44; 6HR MAX TEMP:  45; 6HR PCP:  0.35;

WILDWOOD*      LGT RAIN  46  45  96 NE10      29.65F
MILLVILLE      LGT RAIN  46  46 100 NE3       29.67F FOG
WRIGHTSTOWN    CLOUDY    45  44  99 N6        29.68S FOG
MOUNT HOLLY    CLOUDY    45  44  97 N6        29.70F FOG
TRENTON        FOG       44  44 100 N6        29.71F VSB 1/4
6HR MIN TEMP:  44; 6HR MAX TEMP:  45;


$$
NJZ001>014-221300-
NORTHERN NEW JERSEY

CITY           SKY/WX    TMP DP  RH WIND       PRES   REMARKS
SUSSEX         FOG       40  40 100 CALM      29.73  VSB 1/4
ANDOVER*         N/A     39  38  96 CALM      29.71F
MORRISTOWN     FOG       43  43 100 CALM      29.74S VSB 3/4
NEWARK         FOG       44  43  96 NW5       29.74S VSB 1/2
TETERBORO      FOG       45  44  97 CALM      29.73S VSB 1/4
CALDWELL       FOG       43  43 100 CALM      29.74S VSB 1/2
SOMERVILLE     FOG       43  42  97 CALM      29.72R VSB 3/4
ALLAIRE*       CLOUDY    45  45 100 N5        29.72F FOG
TOMS RIVER*    CLOUDY    45  44  97 NE7       29.71F FOG

$$
PAZ043-044-047-054-055-060>062-066>071-221300-
EASTERN PENNSYLVANIA

CITY           SKY/WX    TMP DP  RH WIND       PRES   REMARKS
PHILADELPHIA   CLOUDY    46  45  96 NE7       29.70F
6HR MIN TEMP:  45; 6HR MAX TEMP:  46;

NORTH PHILA    FOG       46  45  96 NE9       29.72F VSB 1
BLUE BELL*     CLOUDY    43  43 100 CALM      29.70F
DOYLESTOWN     CLOUDY    44  43  96 N5        29.70F FOG
QUAKERTOWN*    CLOUDY    41  41 100 CALM      29.72F VSB 1/2
PERKASIE*      FOG       41  41 100 NE3       29.71F VSB 1/4
POTTSTOWN      FOG       42  42 100 N5        29.72S VSB 1/2
LANCASTER      FOG       42  42 100 NE5       29.69F VSB 1/2
COATESVILLE    FOG       43  43 100 N5        29.69F VSB 1/4
READING        FOG       42  42 100 NE3       29.70R VSB 1/4
6HR MIN TEMP:  42; 6HR MAX TEMP:  43;

ALLENTOWN      FOG       42  40  92 E5        29.71S VSB 1/4
6HR MIN TEMP:  42; 6HR MAX TEMP:  44;

MOUNT POCONO   CLEAR     36  35  96 NE3       29.68F
6HR MIN TEMP:  34; 6HR MAX TEMP:  43;

HAZLETON       FOG       37  36  93 CALM      29.71S VSB<1/4
LEHIGHTON      FOG       41  41 100 CALM      29.71S VSB 1/4
WILKES BARRE   CLOUDY    40  40 100 E5        29.71S

$$
DEZALL-MDZ008-012-015-019-020-221300-
DELAWARE AND EASTERN MARYLAND

CITY           SKY/WX    TMP DP  RH WIND       PRES   REMARKS
WILMINGTON     CLOUDY    45  45 100 NE6       29.70F VSB 1/4
6HR MIN TEMP:  44; 6HR MAX TEMP:  45;

DOVER          DRIZZLE   45  45 100 N8        29.65F
GEORGETOWN     LGT RAIN  48  47  96 E5        29.65F
6HR MIN TEMP:  46; 6HR MAX TEMP:  48; 6HR PCP:  0.06;

EASTON         CLOUDY    48  46  93 NE7       29.69F FOG
PATUXENT       LGT RAIN  47  47 100 N10       29.66R FOG
OCEAN CITY     CLOUDY    47  47 100 N8        29.63F
WALLOPS ISLAND LGT RAIN  51  51 100 NE15      29.63S FOG
CAMBRIDGE      CLOUDY    46  46 100 CALM      29.65R
SALISBURY      CLOUDY    48  48 100 NE8       29.64F

$$
PAZ001-021-NYZ056-072-MDZ011-DCZ001-221300-
OTHER NEARBY LOCATIONS

CITY           SKY/WX    TMP DP  RH WIND       PRES   REMARKS
HARRISBURG     CLOUDY    43  43 100 N3        29.69F FOG
STATE COLLEGE  FOG       39  39 100 CALM      29.68F VSB 1/4
WILLIAMSPORT   CLOUDY    41  40  96 W5        29.70F FOG
BINGHAMTON     FOG       36  36 100 CALM      29.69R VSB 1/4
NEW YORK CITY  CLOUDY    43  43 100 NW3       29.76R FOG
BALTIMORE      FOG       45  45 100 CALM      29.69F VSB 3/4
WASHINGTON DC  DRIZZLE   47  47 100 N8        29.71R FOG

$$



USA.gov is the U.S. government's official web portal to all federal, state and local government web resources and services.